User: anonymous   Login
Location: Unspecified
(0.0000°N, 0.0000°E)
Time: 00:54:25
(UTC+00:00)
Language:

Terriers - Orbit

View from above orbital plane
View from above orbital plane
View from above satellite
View from above satellite

Ground track
Ground track

The orbit data is extracted from the following two-line orbital elements,

1 25735U 99026A   17324.58906921 +.00003042 +00000-0 +63928-4 0  9996
2 25735 097.1953 128.9430 0005419 144.3061 215.8552 15.46100006030399
Epoch (UTC): 20 November 2017 14:08:15
Eccentricity: 0.0005419
inclination: 97.1953°
perigee height: 424 km
apogee height: 432 km
right ascension of ascending node: 128.9430°
argument of perigee: 144.3061°
revolutions per day: 15.46100006
mean anomaly at epoch: 215.8552°
orbit number at epoch: 3039

The dashed part of the orbit path shows where the satellite is in the earth's shadow,  

DLR